Temperature
16 16 16 16 17 17 17 17 17 17 18 18 18 18 19 19 19 19 19 18 18 18 18 18 18 18 18 18 18 18 18 18 18 18 18 18 17 17 17 17 17 17 17
15 16 16 16 16 16 17 17 17 17 17 18 18 19 19 19 19 19 19 19 18 18 18 18 18 18 18 18 18 18 18 17 17 17 17 17 17 17 17 17 17 17 17
15 15 15 16 16 16 16 17 17 17 17 18 18 18 19 19 19 19 18 19 18 18 18 18 18 18 18 18 18 18 18 17 17 17 17 17 17 17 17 17 17 17 17
15 15 15 15 15 15 16 16 16 17 17 17 18 18 18 18 19 19 18 18 18 18 18 18 18 18 18 18 18 18 17 17 17 17 17 17 17 17 17 17 17 17 17
14 14 15 15 15 15 15 16 16 16 17 17 17 18 18 18 18 18 18 18 18 18 18 18 18 18 18 18 18 18 18 17 17 17 17 17 17 17 17 17 17 17 17
14 14 14 14 15 15 15 15 16 16 16 17 17 17 17 18 18 18 18 18 18 18 18 18 18 18 18 18 18 18 18 17 17 17 17 17 17 17 17 17 17 17 17
13 13 14 14 14 14 15 15 15 16 16 16 16 17 17 17 17 18 18 18 18 18 18 18 18 18 18 18 18 18 18 18 17 17 17 17 17 17 17 17 17 17 17
13 13 13 13 14 14 14 15 15 15 15 16 16 16 16 17 17 17 18 18 18 18 18 18 18 18 18 18 18 18 18 17 17 17 17 17 17 17 17 17 17 17 17
13 13 13 13 13 14 14 14 14 15 15 15 16 16 16 16 17 17 18 17 17 18 18 17 18 17 17 18 18 17 17 17 17 17 17 17 17 17 17 17 17 17 16
13 13 13 13 13 13 14 14 14 14 15 15 15 16 16 16 16 17 17 17 17 17 18 17 17 17 17 17 17 17 17 17 17 17 17 17 17 17 17 17 17 16 16
13 13 13 13 13 13 14 14 14 14 14 15 15 15 15 16 16 16 16 17 17 17 17 17 17 17 17 17 17 17 17 17 17 17 17 17 17 17 17 16 16 16 16
13 13 13 13 13 13 13 13 14 14 14 14 15 15 15 15 16 16 16 16 16 17 17 17 17 17 17 17 17 17 17 17 17 17 17 17 16 16 16 16 16 16 16
13 12 12 12 13 13 13 13 13 14 14 14 14 15 15 15 15 15 16 16 16 16 16 17 17 16 17 17 17 17 17 17 17 17 17 16 16 16 16 16 16 16 16
12 12 12 12 12 13 13 13 13 13 14 14 14 14 14 15 15 15 15 15 15 15 16 16 16 16 16 16 16 16 16 16 16 16 16 16 16 16 16 16 16 16 16
12 12 12 12 12 13 13 13 13 13 13 14 14 14 14 14 14 15 15 15 15 15 15 15 16 16 16 16 16 16 16 16 16 16 16 16 16 16 16 16 16 16 15
12 12 12 12 12 13 13 13 13 13 13 13 13 14 14 14 14 14 14 14 15 15 15 15 15 15 15 15 15 15 16 16 16 16 16 16 16 16 16 15 15 15 15
12 12 12 12 12 12 12 13 13 13 13 13 13 13 13 14 14 14 14 14 14 14 14 15 15 15 15 15 15 15 15 15 15 15 15 15 15 15 15 15 15 15 15
12 12 12 12 12 12 12 12 12 13 13 13 13 13 13 13 14 14 14 14 14 14 14 14 14 15 15 14 15 15 15 15 15 15 15 15 15 15 15 15 15 15 15
12 12 12 12 12 12 12 12 12 12 12 13 13 13 13 13 13 13 14 14 14 14 14 14 14 14 14 14 14 14 14 14 14 14 15 15 15 15 15 14 14 14 14
12 12 12 12 12 12 12 12 12 12 12 12 13 13 13 13 13 13 13 13 13 14 14 14 14 14 14 14 14 14 14 14 14 14 14 14 14 14 14 14 14 14 14
12 12 12 12 12 12 12 12 12 12 12 12 12 13 13 13 13 13 13 13 13 13 13 13 13 13 13 13 13 13 13 14 13 13 13 14 14 14 14 13 13 13 13
12 12 12 12 12 12 12 12 12 12 12 12 12 12 12 12 13 13 13 13 13 13 13 13 13 13 13 13 13 13 13 13 13 13 13 13 13 13 13 13 13 13 13
12 12 12 12 12 12 12 12 12 12 12 12 12 12 12 12 12 12 12 13 13 13 13 13 13 13 13 13 13 13 13 13 13 13 13 12 12 12 12 12 13 12 12
12 12 12 12 12 12 12 12 12 12 12 12 12 12 12 12 12 12 12 12 12 12 13 13 13 13 13 13 13 13 13 13 13 12 12 12 12 12 12 12 12 12 12
12 12 12 12 12 12 12 12 12 12 12 12 12 12 12 12 12 12 12 12 12 12 12 12 12 13 13 13 13 13 12 12 12 12 12 12 12 11 11 11 11 11 11
12 12 12 12 12 12 12 12 12 12 12 12 12 12 12 12 12 12 12 12 12 12 12 12 12 12 12 12 12 13 13 12 12 12 12 12 12 11 11 11 11 11 11
Wind_Speed
3 3 2 2 4 5 4 4 4 6 6 5 5 5 4 4 5 8 13 17 16 13 11 10 10 9 9 9 9 9 9 9 9 9 9 10 9 9 8 8 9 8 8
2 3 3 3 3 4 6 4 5 5 5 4 4 4 3 2 4 7 12 15 17 15 13 12 11 11 11 10 10 10 10 10 9 9 9 9 9 8 8 8 8 7 7
4 3 3 3 3 5 5 4 4 3 4 4 4 4 3 3 3 4 11 13 14 15 15 13 13 12 12 11 11 11 11 10 10 10 9 9 9 9 8 8 8 7 6
7 3 3 3 3 4 3 3 4 4 4 3 3 3 4 3 3 3 5 10 13 13 15 15 14 14 13 13 12 12 12 11 11 10 10 9 9 9 9 8 8 7 6
8 4 3 3 3 3 3 4 4 3 4 4 3 3 4 4 3 4 3 6 10 13 14 16 17 16 15 14 14 13 13 12 12 11 11 10 9 9 9 8 8 7 7
7 5 3 4 3 3 3 3 4 3 3 3 4 4 3 3 3 3 4 3 5 10 13 15 15 15 16 16 16 15 14 14 13 12 11 11 10 10 9 9 8 8 8
5 4 4 4 3 3 3 4 3 3 3 3 2 2 3 4 3 3 3 2 2 5 10 13 13 13 13 17 17 16 16 15 15 14 13 12 11 11 10 9 9 8 8
5 5 4 3 3 3 3 3 3 2 2 3 3 2 2 2 3 5 3 3 3 2 4 10 12 13 14 14 16 18 17 16 16 15 14 13 12 12 11 10 10 9 9
4 3 4 4 4 3 3 3 3 2 2 3 3 3 3 3 2 2 4 4 4 2 3 3 6 10 13 14 15 18 19 18 17 15 15 14 14 13 12 11 11 10 9
4 4 4 4 4 3 3 4 3 3 3 3 2 3 2 1 2 1 2 4 4 3 3 2 3 5 9 13 15 18 20 18 17 16 15 14 14 13 12 12 11 11 10
4 4 4 4 3 3 3 4 3 3 3 3 3 2 2 2 2 2 2 2 2 2 2 2 2 1 5 9 13 16 19 18 16 15 15 14 14 13 13 12 12 12 11
4 4 4 4 3 2 3 3 3 3 3 3 3 3 3 3 3 2 2 2 2 2 2 1 1 2 3 7 11 16 17 16 16 15 14 13 13 13 13 13 13 12 12
3 4 4 4 4 3 3 3 3 3 3 3 3 3 4 4 3 3 2 2 2 1 1 1 1 2 3 7 9 16 17 16 15 15 14 13 13 13 12 12 12 12 12
3 4 4 4 4 4 4 2 2 3 2 3 3 3 2 3 3 3 3 3 2 2 2 2 1 2 3 5 8 15 13 16 15 15 14 14 13 12 12 11 11 11 11
4 5 5 5 4 3 3 2 2 2 2 2 2 3 2 3 2 3 3 4 4 3 4 4 3 3 3 4 8 10 11 15 15 15 14 13 13 12 11 10 10 10 10
5 5 5 5 4 4 3 2 1 1 2 2 2 2 2 2 2 3 3 3 4 4 3 3 3 2 3 4 8 9 10 14 15 15 15 14 14 12 12 11 10 9 9
5 5 5 5 5 4 4 3 2 1 1 2 2 2 2 2 2 2 2 3 3 3 3 2 2 2 3 4 5 6 7 9 11 14 15 14 14 13 12 11 10 10 9
5 5 5 5 5 5 4 3 2 2 1 2 2 2 2 1 2 2 2 3 3 4 4 3 2 3 3 4 5 4 5 7 8 12 14 14 14 13 12 12 11 10 9
6 5 5 5 6 5 5 5 4 2 1 2 1 1 1 1 2 1 2 2 3 3 3 3 3 2 2 3 4 3 4 4 6 9 12 13 13 13 12 12 11 10 10
7 6 6 6 6 6 6 6 6 4 2 2 1 1 1 0 1 1 1 1 2 2 3 3 3 3 2 3 4 4 4 3 4 4 6 9 10 11 11 11 11 11 11
8 7 6 6 6 5 6 6 5 5 3 2 2 1 1 1 2 1 1 2 2 2 3 3 4 3 3 4 4 4 5 4 3 3 4 4 5 5 7 9 10 11 12
6 6 6 6 6 6 8 9 7 5 4 3 2 2 1 2 2 3 3 3 3 4 3 3 3 4 5 5 4 5 5 5 3 4 4 3 4 4 5 6 9 12 12
5 5 6 6 5 6 8 9 10 5 4 3 2 2 2 1 1 1 2 2 3 4 5 4 4 5 5 5 6 6 6 5 4 6 5 3 3 3 4 7 11 12 12
4 4 4 4 4 5 8 8 9 6 4 3 3 2 2 2 3 3 2 1 1 1 2 3 4 4 4 4 6 6 6 4 4 3 4 3 3 3 3 6 11 12 12
4 4 3 3 3 3 6 7 8 4 3 4 4 5 4 3 5 6 2 1 1 1 1 2 3 4 5 6 6 6 6 6 4 2 2 3 3 3 2 3 7 11 12
4 4 3 3 3 3 4 6 7 3 4 4 3 4 5 5 5 6 3 1 0 0 0 0 1 2 3 5 7 7 8 7 4 3 3 4 4 4 3 2 4 7 9
Wind_Direction
260 259 258 243 238 231 221 225 222 235 240 243 244 244 240 206 186 160 159 161 161 165 168 170 170 166 160 159 155 152 151 148 146 147 147 144 140 136 133 132 133 129 126
266 268 260 249 241 238 227 216 226 235 240 246 257 265 265 231 208 160 161 168 169 170 172 176 175 173 170 168 165 162 160 158 156 151 149 149 148 149 145 139 137 135 134
289 270 274 261 244 246 238 225 230 241 239 244 255 267 275 247 230 182 168 169 173 177 177 179 179 178 176 176 174 170 166 165 164 162 160 158 158 159 158 152 149 149 149
312 295 278 269 258 258 242 235 221 232 236 232 247 256 267 253 248 232 186 172 171 178 182 184 181 181 182 180 180 179 176 172 171 168 166 163 165 166 166 163 161 162 163
321 318 303 278 268 257 245 249 231 220 227 222 233 244 259 260 246 244 223 186 176 174 176 185 185 183 184 184 183 184 182 180 179 176 173 170 169 168 169 170 170 170 169
322 319 295 294 288 267 247 249 250 229 224 213 230 246 246 255 265 260 253 216 176 171 172 176 181 187 188 187 187 187 187 186 185 184 182 179 177 174 174 175 175 175 173
316 303 301 307 304 281 258 252 254 241 226 201 190 255 260 238 247 257 263 270 204 179 164 169 177 182 189 193 191 189 190 189 189 189 189 188 186 184 183 182 182 182 181
321 309 309 310 304 293 276 264 261 235 235 197 173 174 230 256 251 234 234 250 253 209 174 179 181 179 181 184 193 192 191 190 191 191 193 193 192 192 190 188 188 190 191
316 307 306 303 296 291 279 267 252 230 233 231 202 185 184 210 230 243 215 221 233 227 200 192 183 182 179 176 184 193 193 192 194 195 196 196 195 195 196 196 197 197 193
329 322 307 300 292 284 283 273 256 236 220 227 228 223 222 172 174 224 240 218 215 220 210 219 206 189 180 172 172 184 190 191 193 195 197 198 197 197 199 199 201 199 196
334 328 319 302 291 280 275 274 272 252 230 223 218 206 218 223 219 187 207 219 221 225 209 213 208 181 166 155 162 173 183 188 189 193 196 199 200 201 202 202 204 203 202
332 344 338 324 315 305 290 277 270 252 241 232 227 214 199 195 198 194 199 199 216 236 222 209 184 156 152 151 164 165 175 184 188 190 194 197 201 203 204 206 206 205 204
338 346 341 325 325 320 307 296 281 262 250 238 225 221 216 217 203 193 186 186 205 240 243 257 216 181 169 157 165 167 175 182 189 192 194 195 197 200 203 205 207 207 207
334 345 331 322 318 318 312 312 295 277 259 247 238 228 216 218 207 197 188 176 181 214 223 232 248 216 174 160 166 168 175 182 188 189 190 190 191 195 197 202 206 208 210
340 345 328 321 320 322 314 312 292 283 283 253 240 239 231 222 214 199 188 181 173 190 219 216 203 217 183 172 169 174 171 181 184 185 184 183 183 185 188 193 198 201 205
341 333 332 334 333 330 317 308 291 276 289 275 240 231 231 226 219 204 188 191 188 186 207 211 201 196 187 177 174 182 173 175 181 184 184 185 184 182 183 186 188 189 190
343 340 341 340 338 337 333 332 327 329 300 294 278 246 239 224 208 208 198 191 196 183 196 213 199 180 179 178 170 179 169 168 178 183 185 185 183 182 183 185 184 182 183
339 342 343 341 343 342 337 336 327 317 302 298 301 288 265 249 220 216 205 203 199 194 184 191 204 195 195 180 171 174 165 163 168 181 183 182 180 180 180 181 179 180 181
347 350 353 356 350 349 348 349 344 330 310 295 294 307 308 292 260 255 235 217 199 199 181 180 197 198 192 176 167 173 165 153 162 174 178 178 175 174 175 176 174 174 172
349 350 358 3 4 6 6 2 349 338 328 317 314 315 327 237 257 272 243 246 207 190 179 176 185 192 189 182 165 173 168 162 157 156 160 161 163 167 170 170 170 169 166
351 351 1 4 8 14 14 7 347 336 329 318 310 293 279 189 210 224 218 222 213 196 182 181 188 193 195 182 185 178 175 161 154 153 144 148 149 153 159 166 170 167 165
346 353 360 9 13 17 11 10 356 329 320 315 312 310 273 212 197 219 222 223 204 194 196 194 199 200 207 200 188 176 170 170 176 174 155 158 157 160 157 158 166 166 163
350 355 360 11 17 16 9 4 357 340 322 321 322 319 327 33 27 337 264 237 216 208 208 203 202 216 208 200 188 183 182 177 176 166 149 158 157 152 143 155 161 161 161
349 352 355 356 359 8 9 5 354 343 343 352 9 8 23 45 26 11 336 296 178 181 224 216 207 218 218 202 191 186 168 145 123 143 142 151 158 148 133 144 158 159 159
338 335 337 335 348 14 17 11 2 337 345 7 27 34 41 45 22 12 353 323 152 170 218 203 203 207 204 188 176 157 154 153 155 167 150 142 148 130 127 143 158 161 158
313 316 321 336 358 20 33 21 9 347 359 4 19 42 47 37 17 6 350 350 104 289 279 158 167 178 187 177 170 170 167 167 154 161 172 146 150 142 144 154 157 163 163
Height
1513 1513 1514 1515 1516 1517 1518 1520 1521 1522 1524 1525 1526 1528 1530 1531 1533 1534 1535 1537 1538 1539 1540 1541 1542 1543 1545 1546 1548 1549 1551 1552 1554 1555 1556 1558 1559 1561 1562 1564 1565 1566 1567
1510 1511 1511 1511 1513 1514 1515 1516 1517 1519 1521 1522 1524 1525 1527 1529 1530 1532 1533 1535 1536 1537 1538 1540 1541 1542 1544 1545 1547 1549 1550 1552 1553 1555 1556 1558 1559 1560 1562 1563 1564 1566 1567
1508 1508 1508 1508 1509 1510 1512 1513 1514 1516 1518 1519 1520 1522 1524 1526 1528 1529 1531 1532 1534 1535 1537 1538 1539 1541 1542 1544 1546 1548 1549 1551 1553 1554 1556 1557 1558 1560 1561 1562 1564 1565 1566
1505 1505 1505 1505 1506 1507 1508 1509 1511 1512 1514 1516 1517 1519 1521 1522 1525 1527 1528 1529 1531 1533 1534 1536 1538 1539 1541 1543 1545 1546 1548 1550 1552 1553 1555 1556 1558 1559 1560 1562 1563 1565 1566
1502 1502 1502 1502 1503 1504 1505 1506 1507 1509 1511 1512 1514 1515 1517 1519 1521 1523 1525 1527 1528 1529 1531 1534 1536 1537 1539 1541 1543 1545 1547 1549 1551 1552 1554 1555 1557 1558 1560 1561 1562 1564 1565
1500 1499 1499 1499 1500 1501 1501 1502 1504 1506 1507 1509 1511 1512 1514 1515 1518 1520 1522 1523 1525 1527 1529 1531 1533 1535 1537 1539 1541 1543 1545 1547 1549 1551 1552 1554 1556 1557 1558 1560 1561 1562 1564
1497 1497 1497 1497 1497 1498 1499 1500 1501 1502 1504 1506 1508 1509 1510 1512 1514 1516 1518 1520 1522 1525 1526 1528 1530 1532 1534 1536 1539 1541 1543 1545 1547 1549 1551 1552 1554 1556 1557 1558 1560 1561 1562
1495 1495 1494 1494 1494 1495 1496 1497 1498 1499 1501 1503 1504 1506 1507 1509 1510 1513 1515 1517 1519 1522 1523 1525 1527 1529 1531 1533 1535 1538 1540 1542 1545 1547 1549 1551 1552 1554 1555 1557 1558 1559 1561
1494 1493 1492 1492 1492 1492 1493 1494 1495 1496 1498 1499 1501 1504 1505 1505 1507 1509 1511 1513 1515 1518 1520 1522 1524 1526 1528 1530 1532 1535 1537 1540 1542 1544 1546 1548 1550 1552 1554 1555 1556 1558 1559
1492 1491 1490 1490 1489 1490 1491 1492 1493 1494 1495 1496 1498 1500 1502 1503 1505 1506 1508 1510 1512 1514 1516 1518 1520 1522 1524 1526 1529 1532 1534 1537 1539 1541 1544 1546 1548 1550 1551 1553 1554 1556 1557
1491 1490 1488 1488 1488 1488 1488 1489 1490 1491 1492 1493 1495 1497 1498 1500 1502 1503 1504 1507 1509 1511 1512 1514 1516 1519 1521 1523 1525 1528 1531 1534 1536 1538 1541 1543 1545 1547 1549 1550 1552 1553 1555
1490 1488 1487 1486 1486 1486 1486 1486 1487 1488 1489 1490 1492 1493 1495 1497 1499 1500 1501 1503 1505 1507 1508 1510 1512 1515 1517 1520 1522 1524 1527 1530 1533 1535 1537 1540 1542 1544 1545 1547 1549 1550 1552
1489 1487 1486 1485 1484 1484 1484 1484 1485 1486 1486 1488 1489 1490 1492 1494 1496 1498 1499 1501 1502 1504 1505 1506 1508 1511 1513 1516 1518 1520 1523 1526 1529 1531 1534 1536 1538 1540 1542 1544 1546 1547 1549
1489 1487 1485 1484 1483 1482 1482 1482 1482 1483 1484 1485 1486 1488 1489 1491 1492 1494 1496 1498 1500 1501 1502 1503 1505 1507 1510 1512 1515 1517 1520 1522 1525 1528 1530 1532 1535 1537 1539 1540 1542 1544 1545
1488 1486 1484 1483 1482 1481 1480 1480 1480 1481 1482 1483 1484 1485 1487 1488 1490 1491 1493 1495 1498 1498 1499 1501 1502 1503 1506 1509 1511 1514 1516 1519 1521 1524 1526 1529 1531 1533 1535 1537 1539 1540 1542
1487 1485 1484 1482 1481 1480 1479 1479 1479 1479 1480 1481 1482 1483 1484 1485 1487 1488 1490 1492 1493 1495 1497 1498 1500 1502 1504 1505 1508 1510 1512 1515 1518 1520 1523 1525 1527 1529 1531 1533 1535 1536 1538
1487 1485 1483 1482 1480 1479 1478 1478 1478 1478 1479 1479 1480 1481 1482 1483 1484 1485 1487 1488 1490 1492 1493 1495 1497 1499 1501 1502 1504 1506 1509 1511 1514 1517 1519 1522 1524 1526 1528 1529 1531 1533 1534
1487 1485 1483 1481 1480 1478 1477 1477 1477 1477 1477 1477 1478 1479 1480 1481 1482 1483 1484 1485 1487 1489 1491 1492 1494 1496 1497 1499 1501 1503 1505 1508 1510 1513 1515 1518 1520 1522 1524 1526 1527 1529 1530
1487 1485 1483 1481 1479 1478 1476 1476 1476 1476 1476 1476 1477 1477 1478 1479 1479 1480 1481 1483 1484 1486 1487 1489 1490 1493 1494 1496 1498 1500 1502 1504 1506 1509 1511 1514 1516 1518 1520 1522 1524 1525 1527
1488 1485 1483 1481 1479 1477 1476 1475 1475 1475 1475 1475 1475 1475 1476 1476 1477 1477 1478 1480 1481 1483 1484 1486 1487 1489 1491 1493 1495 1496 1499 1501 1503 1505 1507 1510 1512 1514 1516 1518 1520 1521 1523
1488 1486 1483 1480 1478 1477 1476 1475 1474 1474 1474 1474 1474 1474 1473 1473 1474 1475 1475 1477 1478 1480 1481 1482 1484 1485 1487 1489 1491 1492 1494 1497 1499 1501 1503 1505 1508 1510 1512 1514 1515 1517 1519
1489 1486 1483 1480 1478 1477 1476 1475 1474 1473 1473 1472 1472 1472 1472 1471 1472 1472 1473 1474 1475 1476 1478 1479 1480 1482 1483 1485 1487 1488 1491 1492 1494 1498 1499 1501 1504 1506 1508 1509 1511 1513 1515
1489 1486 1484 1481 1479 1478 1476 1475 1474 1473 1472 1471 1471 1471 1471 1470 1470 1471 1471 1472 1473 1474 1475 1476 1477 1477 1479 1481 1482 1484 1486 1488 1490 1493 1496 1498 1500 1502 1504 1506 1508 1510 1512
1490 1487 1485 1483 1481 1479 1477 1476 1474 1473 1472 1471 1471 1471 1470 1470 1470 1469 1470 1470 1470 1471 1472 1473 1473 1474 1475 1477 1478 1480 1482 1485 1488 1490 1492 1494 1497 1499 1501 1503 1504 1506 1508
1491 1488 1486 1484 1482 1480 1478 1477 1475 1474 1473 1472 1471 1471 1470 1469 1469 1469 1469 1468 1469 1469 1469 1470 1470 1471 1472 1473 1474 1477 1479 1481 1484 1486 1489 1491 1493 1496 1498 1500 1502 1503 1505
1491 1489 1487 1485 1483 1481 1480 1478 1476 1475 1473 1472 1471 1471 1470 1470 1469 1468 1468 1467 1467 1467 1467 1467 1467 1468 1468 1469 1471 1473 1475 1478 1480 1483 1485 1488 1490 1493 1495 1497 1499 1501 1503